Miramar MCAS, CA

6:47 AM PDT on May 28, 2017 (GMT -0700)
Miramar Marine Corps Air Station-Mitscher

Weather History for KNKX - May, 2014

Change the Weather History Date:

Thursday, May 8, 2014

  Actual Average Record
Temperature  
Mean Temperature 62 °F -  
Max Temperature 69 °F 69 °F 93 °F (2007)
Min Temperature 53 °F 50 °F 48 °F (2003)
Degree Days  
Heating Degree Days 4    
Growing Degree Days 12 (Base 50)    
Moisture  
Dew Point 46 °F    
Average Humidity 59    
Maximum Humidity 77    
Minimum Humidity 43    
Precipitation  
Precipitation 0.00 in - - ()
Sea Level Pressure  
Sea Level Pressure 30.03 in    
Wind  
Wind Speed 5 mph (WSW)    
Max Wind Speed 13 mph    
Max Gust Speed 20 mph    
Visibility 10 miles    
Events      
Averages and records for this station are not official NWS values.
T = Trace of Precipitation, MM = Missing Value Source: NWS Daily Summary

Daily Weather History Graph

Daily Weather History Graph

Search for Another Location

Airport or City:

Trip Planner

Search our weather history database for the weather conditions in past years. The results will help you decide how hot, cold, wet, or windy it might be!

Date:

Astronomy

May. 08, 2014 Rise Set
Actual Time 5:54 AM PDT 7:35 PM PDT
Civil Twilight 5:28 AM PDT 8:02 PM PDT
Nautical Twilight 4:55 AM PDT 8:34 PM PDT
Astronomical Twilight 4:22 AM PDT 9:08 PM PDT
Moon 1:59 PM PDT (5/8) 2:08 AM PDT (5/8)
Length of Visible Light 14h 34m
Length of Day
13h 40m
Waxing Gibbous, 66% of the Moon is Illuminated
May 8
Waxing Gibbous
May 14
Full
May 21
Last Quarter
May 28
New
Jun 5
First Quarter

Hourly Weather History & Observations

Time (PDT) Temp. Dew Point Humidity Pressure Visibility Wind Dir Wind Speed Gust Speed Precip Events Conditions
12:55 AM 57.9 °F 46.9 °F 67% 30.01 in 10.0 mi WSW 6.9 mph - N/A   Mostly Cloudy
1:55 AM 57.9 °F 46.0 °F 65% 30.00 in 10.0 mi Calm Calm - N/A   Mostly Cloudy
2:55 AM 57.9 °F 46.0 °F 65% 29.99 in 10.0 mi West 5.8 mph - N/A   Mostly Cloudy
3:55 AM 57.9 °F 45.0 °F 62% 29.99 in 10.0 mi WSW 4.6 mph - N/A   Mostly Cloudy
4:55 AM 57.0 °F 45.0 °F 64% 29.99 in 10.0 mi SSW 3.5 mph - N/A   Mostly Cloudy
5:55 AM 57.0 °F 45.0 °F 64% 30.00 in 10.0 mi SSW 4.6 mph - N/A   Mostly Cloudy
6:55 AM 57.9 °F 45.0 °F 62% 30.01 in 10.0 mi SW 3.5 mph - N/A   Mostly Cloudy
7:55 AM 59.0 °F 45.0 °F 60% 30.03 in 10.0 mi SW 3.5 mph - N/A   Mostly Cloudy
8:55 AM 61.0 °F 45.0 °F 56% 30.04 in 10.0 mi Variable 4.6 mph - N/A   Mostly Cloudy
9:55 AM 62.1 °F 44.1 °F 52% 30.04 in 10.0 mi Variable 3.5 mph - N/A   Mostly Cloudy
10:55 AM 64.9 °F 44.1 °F 47% 30.04 in 10.0 mi Calm Calm - N/A   Scattered Clouds
11:55 AM 64.9 °F 45.0 °F 48% 30.04 in 10.0 mi West 8.1 mph - N/A   Partly Cloudy
12:55 PM 68.0 °F 45.0 °F 43% 30.03 in 10.0 mi WSW 9.2 mph 17.3 mph N/A   Partly Cloudy
1:55 PM 68.0 °F 45.0 °F 43% 30.04 in 10.0 mi SSW 11.5 mph - N/A   Partly Cloudy
2:55 PM 66.9 °F 46.0 °F 47% 30.04 in 10.0 mi West 11.5 mph 19.6 mph N/A   Partly Cloudy
3:55 PM 66.9 °F 46.9 °F 49% 30.02 in 10.0 mi West 12.7 mph - N/A   Partly Cloudy
4:55 PM 64.9 °F 46.9 °F 52% 30.03 in 10.0 mi West 8.1 mph - N/A   Partly Cloudy
5:55 PM 64.0 °F 46.9 °F 54% 30.02 in 10.0 mi WSW 6.9 mph - N/A   Partly Cloudy
6:55 PM 63.0 °F 46.0 °F 54% 30.02 in 10.0 mi West 6.9 mph - N/A   Scattered Clouds
7:55 PM 59.0 °F 48.0 °F 67% 30.04 in 10.0 mi WNW 6.9 mph - N/A   Scattered Clouds
8:55 PM 57.9 °F 48.0 °F 70% 30.04 in 10.0 mi WNW 4.6 mph - N/A   Scattered Clouds
9:55 PM 55.9 °F 46.9 °F 72% 30.06 in 10.0 mi Calm Calm - N/A   Scattered Clouds
10:55 PM 55.0 °F 46.9 °F 74% 30.07 in 10.0 mi West 3.5 mph - N/A   Scattered Clouds
11:55 PM 53.1 °F 46.0 °F 77% 30.06 in 10.0 mi ESE 4.6 mph - N/A   Scattered Clouds